AFR360 ZGGG-ZBAA

Flight info

Callsign AFR360
Flight time 2h 37m
Altitude 36100
Route MIKIP9 MIKIP A461 BUBDA W56 REBIS/K0852S1130 W56 LEBUN/K0841S1160 W56 NUDKU/K0832S1130 W56 DUGEB DUGEB4A
Aircraft A321/M-SDE3FGHIRWY/LB1

Departure

Time 2026-05-04 03:18
Airport Guangzhou Baiyun International Airport (ZGGG)

Arrival

Time 2026-05-04 05:55
Airport Beijing Capital International Airport (ZBAA)
Time Latitude Longitude Altitude Speed Heading
2026-05-04 02:22 23.38494 113.29925 59 ft 0 kts 26°
2026-05-04 03:06 23.38473 113.29914 57 ft 4 kts 26°
2026-05-04 03:06 23.38449 113.29901 52 ft 4 kts 26°
2026-05-04 03:06 23.38425 113.29888 55 ft 4 kts 26°
2026-05-04 03:06 23.38413 113.29882 56 ft 0 kts 26°
2026-05-04 03:11 23.38415 113.29883 58 ft 1 kts 26°
2026-05-04 03:11 23.38416 113.29896 51 ft 1 kts 96°
2026-05-04 03:11 23.38410 113.29901 56 ft 3 kts 141°
2026-05-04 03:11 23.38355 113.29923 55 ft 13 kts 156°
2026-05-04 03:12 23.38283 113.29973 56 ft 12 kts 141°
2026-05-04 03:12 23.38223 113.30025 56 ft 11 kts 141°
2026-05-04 03:12 23.38176 113.30081 50 ft 9 kts 116°
2026-05-04 03:12 23.38160 113.30146 55 ft 9 kts 104°
2026-05-04 03:13 23.38146 113.30207 58 ft 8 kts 104°
2026-05-04 03:13 23.38130 113.30259 58 ft 6 kts 123°
2026-05-04 03:13 23.38084 113.30269 52 ft 10 kts 189°
2026-05-04 03:13 23.38004 113.30250 55 ft 12 kts 194°
2026-05-04 03:14 23.37929 113.30229 56 ft 11 kts 194°
2026-05-04 03:14 23.37860 113.30210 53 ft 10 kts 194°
2026-05-04 03:14 23.37794 113.30192 53 ft 9 kts 193°
2026-05-04 03:14 23.37735 113.30202 55 ft 9 kts 154°
2026-05-04 03:15 23.37681 113.30234 55 ft 8 kts 150°
2026-05-04 03:15 23.37645 113.30274 56 ft 7 kts 117°
2026-05-04 03:15 23.37631 113.30320 56 ft 7 kts 104°
2026-05-04 03:15 23.37612 113.30404 58 ft 13 kts 103°
2026-05-04 03:16 23.37595 113.30494 55 ft 11 kts 92°
2026-05-04 03:16 23.37613 113.30540 52 ft 10 kts 46°
2026-05-04 03:16 23.37646 113.30554 51 ft 0 kts 14°
2026-05-04 03:17 23.37735 113.30577 52 ft 43 kts 13°
2026-05-04 03:17 23.38032 113.30657 51 ft 87 kts 14°
2026-05-04 03:17 23.38789 113.30866 60 ft 138 kts 13°
2026-05-04 03:17 23.39876 113.31156 54 ft 178 kts 15°
2026-05-04 03:18 23.41101 113.31505 547 ft 178 kts 15°
2026-05-04 03:18 23.42272 113.31840 1275 ft 171 kts 15°
2026-05-04 03:18 23.43407 113.32168 1961 ft 168 kts 16°
2026-05-04 03:18 23.44580 113.32507 2349 ft 181 kts 17°
2026-05-04 03:19 23.45875 113.32887 2513 ft 204 kts 18°
2026-05-04 03:19 23.47296 113.33308 2718 ft 225 kts 18°
2026-05-04 03:19 23.48896 113.33791 2995 ft 245 kts 18°
2026-05-04 03:19 23.50488 113.34269 4032 ft 231 kts 17°
2026-05-04 03:20 23.52076 113.34744 4572 ft 241 kts 16°
2026-05-04 03:20 23.53710 113.35234 5171 ft 247 kts 15°
2026-05-04 03:20 23.55382 113.35735 5761 ft 254 kts 13°
2026-05-04 03:20 23.57138 113.36155 6356 ft 258 kts
2026-05-04 03:21 23.58928 113.36509 6923 ft 263 kts
2026-05-04 03:21 23.60743 113.36844 7534 ft 266 kts
2026-05-04 03:21 23.62594 113.37182 8152 ft 269 kts
2026-05-04 03:21 23.64440 113.37517 8551 ft 283 kts
2026-05-04 03:22 23.66448 113.37883 8921 ft 295 kts
2026-05-04 03:22 23.68458 113.38259 9486 ft 299 kts
2026-05-04 03:22 23.70535 113.38654 10072 ft 303 kts
2026-05-04 03:22 23.72647 113.39059 10358 ft 317 kts
2026-05-04 03:23 23.74865 113.39481 10474 ft 335 kts
2026-05-04 03:23 23.77225 113.39930 10608 ft 353 kts
2026-05-04 03:23 23.79738 113.40406 10802 ft 367 kts
2026-05-04 03:23 23.82266 113.40887 11237 ft 372 kts
2026-05-04 03:24 23.84540 113.41324 11650 ft 376 kts
2026-05-04 03:24 23.87158 113.41832 12180 ft 379 kts
2026-05-04 03:24 23.89724 113.42332 12681 ft 382 kts
2026-05-04 03:24 23.92355 113.42841 13179 ft 386 kts
2026-05-04 03:25 23.95020 113.43354 13678 ft 389 kts
2026-05-04 03:25 23.97678 113.43863 14143 ft 392 kts
2026-05-04 03:25 24.00385 113.44384 14580 ft 395 kts
2026-05-04 03:25 24.03112 113.44908 14991 ft 398 kts
2026-05-04 03:26 24.05841 113.45413 15385 ft 399 kts
2026-05-04 03:26 24.08602 113.45533 15774 ft 395 kts 351°
2026-05-04 03:26 24.11307 113.45211 16192 ft 394 kts 346°
2026-05-04 03:26 24.14034 113.44837 16603 ft 397 kts 346°
2026-05-04 03:27 24.16787 113.44464 17008 ft 400 kts 346°
2026-05-04 03:27 24.19557 113.44090 17397 ft 402 kts 346°
2026-05-04 03:27 24.22351 113.43713 17767 ft 405 kts 346°
2026-05-04 03:27 24.25152 113.43335 18126 ft 407 kts 346°
2026-05-04 03:28 24.27956 113.42956 18461 ft 409 kts 346°
2026-05-04 03:28 24.30792 113.42573 18762 ft 411 kts 346°
2026-05-04 03:28 24.33642 113.42191 19079 ft 412 kts 346°
2026-05-04 03:28 24.36517 113.42058 19377 ft 421 kts 354°
2026-05-04 03:29 24.39464 113.42142 19682 ft 422 kts 354°
2026-05-04 03:29 24.42424 113.42227 19997 ft 423 kts 354°
2026-05-04 03:29 24.45353 113.42311 20296 ft 424 kts 354°
2026-05-04 03:29 24.48317 113.42397 20643 ft 424 kts 354°
2026-05-04 03:30 24.51231 113.42481 20922 ft 426 kts 353°
2026-05-04 03:30 24.54233 113.42564 21238 ft 427 kts 353°
2026-05-04 03:30 24.57214 113.42646 21545 ft 429 kts 353°
2026-05-04 03:30 24.60201 113.42728 21856 ft 430 kts 353°
2026-05-04 03:31 24.63205 113.42812 22132 ft 432 kts 353°
2026-05-04 03:31 24.66212 113.42898 22435 ft 434 kts 353°
2026-05-04 03:31 24.69193 113.42983 22739 ft 435 kts 353°
2026-05-04 03:31 24.72218 113.43069 23037 ft 437 kts 353°
2026-05-04 03:32 24.75265 113.43156 23343 ft 439 kts 352°
2026-05-04 03:32 24.78376 113.43242 23653 ft 440 kts 352°
2026-05-04 03:32 24.81399 113.43327 23895 ft 442 kts 352°
2026-05-04 03:32 24.84474 113.43413 24139 ft 444 kts 352°
2026-05-04 03:33 24.87569 113.43502 24373 ft 446 kts 352°
2026-05-04 03:33 24.90687 113.43591 24598 ft 447 kts 352°
2026-05-04 03:33 24.93789 113.43679 24819 ft 449 kts 352°
2026-05-04 03:33 24.96968 113.43769 25045 ft 451 kts 352°
2026-05-04 03:34 25.00070 113.43858 25273 ft 452 kts 352°
2026-05-04 03:34 25.03200 113.43948 25500 ft 454 kts 352°
2026-05-04 03:34 25.06377 113.44040 25733 ft 456 kts 352°
2026-05-04 03:34 25.09548 113.44132 25968 ft 457 kts 352°
2026-05-04 03:35 25.12724 113.44223 26211 ft 459 kts 352°
2026-05-04 03:35 25.15936 113.44315 26439 ft 461 kts 352°
2026-05-04 03:35 25.19157 113.44406 26679 ft 462 kts 352°
2026-05-04 03:35 25.22356 113.44496 26914 ft 463 kts 352°
2026-05-04 03:36 25.25604 113.44590 27129 ft 465 kts 352°
2026-05-04 03:36 25.28812 113.44682 27340 ft 466 kts 352°
2026-05-04 03:36 25.32074 113.44777 27584 ft 468 kts 352°
2026-05-04 03:36 25.35320 113.44871 27809 ft 469 kts 352°
2026-05-04 03:37 25.38612 113.44967 28014 ft 471 kts 352°
2026-05-04 03:37 25.41898 113.45063 28257 ft 472 kts 352°
2026-05-04 03:37 25.45167 113.45159 28409 ft 474 kts 352°
2026-05-04 03:37 25.48484 113.45255 28591 ft 475 kts 352°
2026-05-04 03:38 25.51782 113.45350 28763 ft 476 kts 352°
2026-05-04 03:38 25.55112 113.45446 28930 ft 477 kts 352°
2026-05-04 03:38 25.58405 113.45538 29077 ft 478 kts 352°
2026-05-04 03:38 25.61752 113.45631 29241 ft 478 kts 352°
2026-05-04 03:39 25.65055 113.45724 29388 ft 479 kts 352°
2026-05-04 03:39 25.68391 113.45821 29620 ft 478 kts 352°
2026-05-04 03:39 25.71708 113.45918 29790 ft 478 kts 351°
2026-05-04 03:39 25.75065 113.46014 30011 ft 477 kts 352°
2026-05-04 03:40 25.78379 113.46111 30225 ft 476 kts 351°
2026-05-04 03:40 25.81681 113.46208 30407 ft 476 kts 352°
2026-05-04 03:40 25.84959 113.46306 30553 ft 476 kts 351°
2026-05-04 03:40 25.88317 113.46379 30702 ft 475 kts 350°
2026-05-04 03:41 25.91571 113.46345 30863 ft 473 kts 348°
2026-05-04 03:41 25.94903 113.46216 31025 ft 472 kts 347°
2026-05-04 03:41 25.98129 113.46043 31170 ft 472 kts 346°
2026-05-04 03:41 26.01429 113.45853 31312 ft 472 kts 346°
2026-05-04 03:42 26.04737 113.45674 31445 ft 473 kts 347°
2026-05-04 03:42 26.08004 113.45520 31620 ft 474 kts 347°
2026-05-04 03:42 26.11285 113.45388 31761 ft 475 kts 347°
2026-05-04 03:42 26.14641 113.45268 31919 ft 476 kts 347°
2026-05-04 03:43 26.17896 113.45156 32085 ft 476 kts 347°
2026-05-04 03:43 26.21233 113.45039 32245 ft 476 kts 347°
2026-05-04 03:43 26.24546 113.44924 32406 ft 477 kts 347°
2026-05-04 03:43 26.27843 113.44808 32560 ft 477 kts 347°
2026-05-04 03:44 26.31158 113.44683 32711 ft 477 kts 347°
2026-05-04 03:44 26.34535 113.44548 32862 ft 478 kts 347°
2026-05-04 03:44 26.37800 113.44416 33015 ft 478 kts 347°
2026-05-04 03:44 26.41183 113.44278 33167 ft 478 kts 347°
2026-05-04 03:45 26.44443 113.44147 33314 ft 479 kts 347°
2026-05-04 03:45 26.47832 113.44013 33466 ft 479 kts 347°
2026-05-04 03:45 26.51164 113.43885 33610 ft 479 kts 347°
2026-05-04 03:45 26.54451 113.43762 33762 ft 479 kts 347°
2026-05-04 03:46 26.57774 113.43639 33921 ft 480 kts 347°
2026-05-04 03:46 26.61123 113.43514 34063 ft 480 kts 346°
2026-05-04 03:46 26.64435 113.43387 34203 ft 480 kts 346°
2026-05-04 03:46 26.67763 113.43259 34346 ft 479 kts 346°
2026-05-04 03:47 26.71090 113.43132 34500 ft 478 kts 346°
2026-05-04 03:47 26.74437 113.43006 34658 ft 477 kts 346°
2026-05-04 03:47 26.77723 113.42880 34793 ft 476 kts 346°
2026-05-04 03:47 26.81039 113.42753 34920 ft 475 kts 346°
2026-05-04 03:48 26.84352 113.42624 35063 ft 474 kts 346°
2026-05-04 03:48 26.87645 113.42497 35200 ft 473 kts 346°
2026-05-04 03:48 26.90921 113.42369 35237 ft 471 kts 346°
2026-05-04 03:49 26.97459 113.42120 35231 ft 469 kts 346°
2026-05-04 03:49 27.03980 113.41870 35231 ft 469 kts 346°
2026-05-04 03:50 27.10508 113.41615 35236 ft 468 kts 346°
2026-05-04 03:50 27.17016 113.41361 35234 ft 468 kts 346°
2026-05-04 03:51 27.23512 113.41101 35242 ft 468 kts 346°
2026-05-04 03:51 27.30019 113.40852 35249 ft 468 kts 346°
2026-05-04 03:52 27.36561 113.40689 35250 ft 472 kts 348°
2026-05-04 03:52 27.43152 113.40834 35255 ft 474 kts 350°
2026-05-04 03:53 27.49754 113.41070 35264 ft 474 kts 350°
2026-05-04 03:53 27.56338 113.41242 35264 ft 472 kts 349°
2026-05-04 03:54 27.62902 113.41352 35263 ft 471 kts 349°
2026-05-04 03:54 27.69451 113.41583 35258 ft 475 kts 352°
2026-05-04 03:55 27.76097 113.42203 35256 ft 478 kts 354°
2026-05-04 03:55 27.82709 113.42915 35258 ft 477 kts 354°
2026-05-04 03:56 27.89287 113.43551 35261 ft 475 kts 353°
2026-05-04 03:56 27.95859 113.44113 35268 ft 474 kts 353°
2026-05-04 03:57 28.02478 113.44667 35268 ft 474 kts 353°
2026-05-04 03:57 28.09015 113.45229 35271 ft 474 kts 353°
2026-05-04 03:58 28.18890 113.45973 35270 ft 471 kts 352°
2026-05-04 03:58 28.25382 113.46404 35270 ft 471 kts 352°
2026-05-04 03:59 28.31936 113.46866 35266 ft 471 kts 352°
2026-05-04 03:59 28.38463 113.47347 35267 ft 471 kts 352°
2026-05-04 04:00 28.45022 113.47821 35258 ft 470 kts 352°
2026-05-04 04:00 28.51515 113.48285 35252 ft 470 kts 353°
2026-05-04 04:01 28.58070 113.48754 35259 ft 470 kts 352°
2026-05-04 04:01 28.64593 113.49210 35262 ft 469 kts 352°
2026-05-04 04:02 28.71100 113.49670 35261 ft 469 kts 352°
2026-05-04 04:02 28.77594 113.50139 35264 ft 469 kts 352°
2026-05-04 04:03 28.84132 113.50617 35258 ft 468 kts 353°
2026-05-04 04:03 28.89523 113.51007 35259 ft 468 kts 352°
2026-05-04 04:04 28.97094 113.51538 35255 ft 468 kts 352°
2026-05-04 04:04 29.02495 113.51926 35253 ft 468 kts 353°
2026-05-04 04:05 29.09000 113.52399 35256 ft 468 kts 353°
2026-05-04 04:05 29.15478 113.52861 35253 ft 467 kts 353°
2026-05-04 04:06 29.21992 113.53336 35251 ft 467 kts 353°
2026-05-04 04:06 29.28486 113.53813 35244 ft 468 kts 353°
2026-05-04 04:07 29.34980 113.54333 35250 ft 469 kts 354°
2026-05-04 04:07 29.41474 113.54914 35247 ft 469 kts 354°
2026-05-04 04:08 29.47996 113.55500 35250 ft 469 kts 354°
2026-05-04 04:08 29.54477 113.56063 35250 ft 468 kts 354°
2026-05-04 04:09 29.60991 113.56624 35256 ft 468 kts 354°
2026-05-04 04:09 29.67478 113.57188 35244 ft 468 kts 354°
2026-05-04 04:10 29.73962 113.57756 35245 ft 469 kts 354°
2026-05-04 04:10 29.80489 113.58332 35241 ft 469 kts 354°
2026-05-04 04:11 29.86965 113.58894 35242 ft 469 kts 354°
2026-05-04 04:11 29.93535 113.59634 35236 ft 479 kts
2026-05-04 04:12 29.96733 113.60674 35234 ft 492 kts 12°
2026-05-04 04:12 29.99900 113.62218 35234 ft 496 kts 15°
2026-05-04 04:12 30.06238 113.65396 35232 ft 497 kts 15°
2026-05-04 04:13 30.12601 113.68581 35234 ft 497 kts 14°
2026-05-04 04:13 30.18954 113.71748 35231 ft 497 kts 15°
2026-05-04 04:14 30.25299 113.74915 35232 ft 498 kts 15°
2026-05-04 04:14 30.31644 113.78089 35233 ft 498 kts 15°
2026-05-04 04:15 30.38011 113.81287 35237 ft 498 kts 15°
2026-05-04 04:15 30.44399 113.84499 35237 ft 498 kts 15°
2026-05-04 04:16 30.50700 113.87674 35238 ft 498 kts 15°
2026-05-04 04:16 30.57064 113.90883 35227 ft 498 kts 15°
2026-05-04 04:17 30.63421 113.94090 35232 ft 498 kts 15°
2026-05-04 04:17 30.69810 113.97224 35229 ft 497 kts 14°
2026-05-04 04:18 30.76139 114.00523 35229 ft 501 kts 17°
2026-05-04 04:18 30.82423 114.04091 35237 ft 501 kts 18°
2026-05-04 04:19 30.88691 114.07585 35241 ft 500 kts 17°
2026-05-04 04:19 30.94998 114.10993 35241 ft 499 kts 16°
2026-05-04 04:20 31.01278 114.14361 35240 ft 499 kts 16°
2026-05-04 04:20 31.07585 114.17769 35234 ft 499 kts 17°
2026-05-04 04:21 31.13929 114.21223 35236 ft 499 kts 17°
2026-05-04 04:21 31.20157 114.24623 35236 ft 498 kts 17°
2026-05-04 04:22 31.26436 114.28054 35240 ft 497 kts 17°
2026-05-04 04:22 31.32663 114.31429 35192 ft 484 kts 12°
2026-05-04 04:23 31.35813 114.32628 35186 ft 468 kts
2026-05-04 04:23 31.38983 114.33232 35190 ft 456 kts 354°
2026-05-04 04:23 31.45255 114.33430 35190 ft 452 kts 351°
2026-05-04 04:24 31.51541 114.33606 35198 ft 453 kts 352°
2026-05-04 04:24 31.57832 114.33805 35200 ft 453 kts 352°
2026-05-04 04:25 31.64142 114.34005 35208 ft 453 kts 352°
2026-05-04 04:25 31.70454 114.34196 35210 ft 453 kts 352°
2026-05-04 04:26 31.76778 114.34377 35211 ft 453 kts 352°
2026-05-04 04:26 31.83073 114.34566 35209 ft 453 kts 352°
2026-05-04 04:27 31.89374 114.34762 35211 ft 453 kts 353°
2026-05-04 04:27 31.95683 114.34953 35201 ft 453 kts 353°
2026-05-04 04:28 32.01983 114.35137 35210 ft 453 kts 353°
2026-05-04 04:28 32.08237 114.35328 35208 ft 453 kts 353°
2026-05-04 04:29 32.14530 114.35521 35199 ft 452 kts 353°
2026-05-04 04:29 32.20860 114.35715 35189 ft 452 kts 353°
2026-05-04 04:30 32.27131 114.35926 35190 ft 453 kts 355°
2026-05-04 04:30 32.33422 114.36429 35186 ft 455 kts 357°
2026-05-04 04:31 32.39760 114.37105 35188 ft 456 kts 358°
2026-05-04 04:31 32.46071 114.37742 35189 ft 455 kts 357°
2026-05-04 04:32 32.52398 114.38321 35189 ft 454 kts 357°
2026-05-04 04:32 32.58656 114.38877 35186 ft 454 kts 358°
2026-05-04 04:33 32.64998 114.39449 35187 ft 453 kts 358°
2026-05-04 04:33 32.71289 114.40030 35185 ft 453 kts 358°
2026-05-04 04:34 32.77510 114.40614 35187 ft 453 kts 358°
2026-05-04 04:34 32.83788 114.41203 35187 ft 452 kts 359°
2026-05-04 04:35 32.90059 114.41789 35190 ft 452 kts 359°
2026-05-04 04:35 32.96331 114.42375 35186 ft 451 kts 359°
2026-05-04 04:36 33.02585 114.42955 35187 ft 451 kts 359°
2026-05-04 04:36 33.08836 114.43544 35183 ft 450 kts 359°
2026-05-04 04:37 33.21321 114.44717 35187 ft 450 kts 359°
2026-05-04 04:38 33.27548 114.45301 35186 ft 449 kts 359°
2026-05-04 04:38 33.33791 114.45881 35184 ft 449 kts 359°
2026-05-04 04:39 33.40020 114.46471 35182 ft 449 kts 360°
2026-05-04 04:39 33.46245 114.47063 35186 ft 448 kts 360°
2026-05-04 04:40 33.52472 114.47648 35182 ft 448 kts 360°
2026-05-04 04:40 33.58671 114.48227 35181 ft 447 kts 360°
2026-05-04 04:41 33.64855 114.48816 35186 ft 447 kts 360°
2026-05-04 04:41 33.71053 114.49400 35191 ft 446 kts 360°
2026-05-04 04:42 33.77255 114.49984 35186 ft 446 kts
2026-05-04 04:42 33.83443 114.50564 35187 ft 445 kts
2026-05-04 04:43 33.89583 114.51136 35187 ft 444 kts
2026-05-04 04:43 33.95745 114.51715 35186 ft 444 kts
2026-05-04 04:44 34.01916 114.52295 35187 ft 443 kts
2026-05-04 04:44 34.08064 114.52878 35172 ft 443 kts
2026-05-04 04:45 34.14216 114.53465 35178 ft 443 kts
2026-05-04 04:47 34.35651 114.55500 35181 ft 442 kts
2026-05-04 04:47 34.41767 114.56074 35181 ft 442 kts
2026-05-04 04:48 34.46869 114.56562 35180 ft 442 kts
2026-05-04 04:49 34.62174 114.58022 35191 ft 441 kts
2026-05-04 04:49 34.68279 114.58594 35191 ft 441 kts
2026-05-04 04:50 34.74438 114.59183 35187 ft 440 kts
2026-05-04 04:50 34.80503 114.59770 35183 ft 439 kts
2026-05-04 04:51 34.86572 114.60352 35181 ft 439 kts
2026-05-04 04:51 34.92663 114.60932 35179 ft 438 kts
2026-05-04 04:52 34.98737 114.61505 35179 ft 438 kts
2026-05-04 04:52 35.04805 114.62088 35181 ft 437 kts
2026-05-04 04:53 35.10879 114.62670 35179 ft 437 kts
2026-05-04 04:53 35.16977 114.63259 35175 ft 436 kts
2026-05-04 04:54 35.22969 114.63833 35173 ft 436 kts
2026-05-04 04:54 35.29034 114.64419 35174 ft 435 kts
2026-05-04 04:55 35.35030 114.65003 35173 ft 435 kts
2026-05-04 04:55 35.41074 114.65583 35173 ft 434 kts
2026-05-04 04:56 35.47098 114.66165 35172 ft 434 kts
2026-05-04 04:56 35.53091 114.66754 35161 ft 434 kts
2026-05-04 04:57 35.59126 114.67337 35161 ft 433 kts
2026-05-04 04:57 35.65109 114.67915 35164 ft 433 kts
2026-05-04 04:58 35.71112 114.68506 35153 ft 432 kts
2026-05-04 04:58 35.77101 114.69093 35152 ft 432 kts
2026-05-04 04:59 35.83093 114.69679 35153 ft 432 kts
2026-05-04 04:59 35.89087 114.70265 35155 ft 432 kts
2026-05-04 05:00 35.95075 114.70852 35161 ft 432 kts
2026-05-04 05:00 36.01058 114.71434 35511 ft 432 kts 351°
2026-05-04 05:01 36.04097 114.71720 35352 ft 440 kts 355°
2026-05-04 05:01 36.07166 114.72012 35181 ft 446 kts 355°
2026-05-04 05:01 36.10265 114.72317 35141 ft 448 kts 355°
2026-05-04 05:02 36.16483 114.72948 35147 ft 449 kts 356°
2026-05-04 05:02 36.22705 114.73565 35145 ft 448 kts 356°
2026-05-04 05:03 36.28901 114.74169 35140 ft 447 kts 356°
2026-05-04 05:04 36.41199 114.77194 35147 ft 468 kts 18°
2026-05-04 05:04 36.47066 114.80624 35151 ft 468 kts 17°
2026-05-04 05:06 36.70689 114.94302 35162 ft 467 kts 18°
2026-05-04 05:07 36.76556 114.97727 35152 ft 466 kts 18°
2026-05-04 05:07 36.82415 115.01142 35152 ft 464 kts 18°
2026-05-04 05:09 37.08570 115.16491 35149 ft 460 kts 18°
2026-05-04 05:10 37.14392 115.19914 35151 ft 459 kts 18°
2026-05-04 05:10 37.20115 115.23291 35143 ft 458 kts 19°
2026-05-04 05:11 37.25899 115.26717 35150 ft 457 kts 19°
2026-05-04 05:11 37.31625 115.30106 35141 ft 456 kts 19°
2026-05-04 05:12 37.37407 115.33528 35146 ft 456 kts 19°
2026-05-04 05:12 37.43136 115.36936 35138 ft 455 kts 19°
2026-05-04 05:13 37.48803 115.40318 35138 ft 454 kts 19°
2026-05-04 05:13 37.54512 115.43727 35132 ft 454 kts 19°
2026-05-04 05:14 37.60264 115.47156 35137 ft 453 kts 19°
2026-05-04 05:14 37.65922 115.50541 35128 ft 453 kts 19°
2026-05-04 05:15 37.71596 115.53944 35128 ft 453 kts 19°
2026-05-04 05:15 37.77316 115.57235 35120 ft 447 kts 13°
2026-05-04 05:16 37.83311 115.58598 35124 ft 431 kts 354°
2026-05-04 05:16 37.89252 115.58190 35108 ft 429 kts 351°
2026-05-04 05:17 37.95235 115.57739 35096 ft 431 kts 352°
2026-05-04 05:17 37.98237 115.57520 34939 ft 431 kts 352°
2026-05-04 05:17 38.01241 115.57303 33870 ft 435 kts 352°
2026-05-04 05:18 38.04249 115.57087 32104 ft 436 kts 353°
2026-05-04 05:18 38.07288 115.56867 30430 ft 437 kts 353°
2026-05-04 05:18 38.10324 115.56667 29311 ft 430 kts 354°
2026-05-04 05:18 38.13266 115.56517 28289 ft 419 kts 354°
2026-05-04 05:19 38.16162 115.56353 27723 ft 411 kts 354°
2026-05-04 05:19 38.18993 115.56174 27162 ft 404 kts 354°
2026-05-04 05:19 38.21784 115.55980 26604 ft 398 kts 353°
2026-05-04 05:19 38.24502 115.55850 26244 ft 388 kts 358°
2026-05-04 05:20 38.27167 115.56273 25709 ft 388 kts
2026-05-04 05:20 38.29744 115.57381 25150 ft 390 kts 20°
2026-05-04 05:20 38.32156 115.58901 24595 ft 387 kts 21°
2026-05-04 05:20 38.34555 115.60426 24061 ft 382 kts 21°
2026-05-04 05:21 38.36917 115.61919 23535 ft 377 kts 21°
2026-05-04 05:21 38.39248 115.63387 22998 ft 370 kts 21°
2026-05-04 05:21 38.41529 115.64822 22524 ft 362 kts 21°
2026-05-04 05:21 38.43757 115.66218 22085 ft 355 kts 21°
2026-05-04 05:22 38.45981 115.67616 21649 ft 348 kts 21°
2026-05-04 05:22 38.48128 115.68971 21251 ft 346 kts 21°
2026-05-04 05:22 38.50264 115.70319 20864 ft 344 kts 21°
2026-05-04 05:22 38.52402 115.71667 20437 ft 343 kts 21°
2026-05-04 05:23 38.54554 115.73024 20015 ft 341 kts 21°
2026-05-04 05:23 38.56691 115.74373 19598 ft 339 kts 21°
2026-05-04 05:23 38.58795 115.75705 19190 ft 337 kts 21°
2026-05-04 05:23 38.60863 115.77017 18779 ft 335 kts 21°
2026-05-04 05:24 38.62961 115.78349 18350 ft 334 kts 21°
2026-05-04 05:24 38.65017 115.79661 17893 ft 332 kts 22°
2026-05-04 05:24 38.66982 115.81259 17524 ft 340 kts 33°
2026-05-04 05:24 38.68879 115.83288 17441 ft 357 kts 35°
2026-05-04 05:25 38.70760 115.85311 17360 ft 360 kts 35°
2026-05-04 05:25 38.72688 115.87380 17278 ft 361 kts 35°
2026-05-04 05:25 38.74639 115.89477 17176 ft 360 kts 35°
2026-05-04 05:25 38.76555 115.91541 17033 ft 360 kts 35°
2026-05-04 05:26 38.78427 115.93559 16968 ft 358 kts 35°
2026-05-04 05:26 38.80337 115.95615 16981 ft 359 kts 35°
2026-05-04 05:26 38.82253 115.97681 16983 ft 359 kts 35°
2026-05-04 05:26 38.84164 115.99743 16954 ft 360 kts 35°
2026-05-04 05:27 38.86114 116.01850 16773 ft 359 kts 35°
2026-05-04 05:28 38.99342 116.16164 15420 ft 351 kts 34°
2026-05-04 05:29 39.01352 116.17886 15170 ft 343 kts 22°
2026-05-04 05:29 39.03541 116.18963 15022 ft 336 kts 10°
2026-05-04 05:29 39.05831 116.19412 15022 ft 332 kts 359°
2026-05-04 05:29 39.08136 116.19242 15004 ft 330 kts 350°
2026-05-04 05:31 39.24093 116.16834 14999 ft 330 kts 351°
2026-05-04 05:31 39.26388 116.16491 14985 ft 330 kts 351°
2026-05-04 05:32 39.28640 116.16152 14985 ft 330 kts 351°
2026-05-04 05:32 39.30940 116.15802 14988 ft 330 kts 351°
2026-05-04 05:32 39.33237 116.15451 14878 ft 330 kts 351°
2026-05-04 05:33 39.37792 116.14757 14679 ft 329 kts 351°
2026-05-04 05:33 39.40062 116.14415 14599 ft 328 kts 351°
2026-05-04 05:33 39.42312 116.14075 14513 ft 328 kts 351°
2026-05-04 05:33 39.44597 116.13729 14392 ft 327 kts 351°
2026-05-04 05:34 39.46856 116.13385 14315 ft 327 kts 351°
2026-05-04 05:34 39.48333 116.13158 14266 ft 334 kts 351°
2026-05-04 05:34 39.51553 116.12662 14158 ft 360 kts 351°
2026-05-04 05:34 39.53238 116.12405 14096 ft 363 kts 351°
2026-05-04 05:35 39.55760 116.12022 14006 ft 364 kts 351°
2026-05-04 05:35 39.59085 116.11519 13889 ft 364 kts 351°
2026-05-04 05:35 39.61615 116.11133 13791 ft 363 kts 351°
2026-05-04 05:35 39.64123 116.10744 13688 ft 363 kts 351°
2026-05-04 05:36 39.66599 116.10360 13589 ft 362 kts 351°
2026-05-04 05:36 39.69105 116.09973 13503 ft 362 kts 351°
2026-05-04 05:36 39.71603 116.09590 13404 ft 361 kts 351°
2026-05-04 05:36 39.74100 116.09208 13308 ft 361 kts 351°
2026-05-04 05:37 39.75751 116.08955 13245 ft 361 kts 351°
2026-05-04 05:37 39.78247 116.08569 13152 ft 360 kts 351°
2026-05-04 05:37 39.80732 116.08182 13060 ft 360 kts 351°
2026-05-04 05:38 39.85728 116.07403 12871 ft 359 kts 351°
2026-05-04 05:38 39.88189 116.07024 12781 ft 359 kts 352°
2026-05-04 05:38 39.90678 116.06641 12690 ft 360 kts 352°
2026-05-04 05:38 39.93194 116.06252 12593 ft 360 kts 352°
2026-05-04 05:39 39.95657 116.05871 12508 ft 360 kts 352°
2026-05-04 05:39 40.00615 116.05104 12186 ft 365 kts 352°
2026-05-04 05:39 40.03179 116.04703 12102 ft 366 kts 352°
2026-05-04 05:40 40.08077 116.03943 11625 ft 346 kts 352°
2026-05-04 05:40 40.10457 116.03577 11392 ft 334 kts 351°
2026-05-04 05:40 40.12737 116.03224 11142 ft 328 kts 351°
2026-05-04 05:41 40.14995 116.02971 10778 ft 325 kts 359°
2026-05-04 05:41 40.17169 116.03532 10301 ft 327 kts 17°
2026-05-04 05:41 40.19301 116.04612 9841 ft 324 kts 18°
2026-05-04 05:41 40.21319 116.05670 9685 ft 299 kts 19°
2026-05-04 05:42 40.23203 116.06669 9383 ft 287 kts 19°
2026-05-04 05:42 40.25042 116.07638 9388 ft 288 kts 18°
2026-05-04 05:42 40.26911 116.08617 9383 ft 288 kts 18°
2026-05-04 05:42 40.28783 116.09594 9379 ft 289 kts 18°
2026-05-04 05:43 40.30649 116.10569 9376 ft 289 kts 18°
2026-05-04 05:43 40.32514 116.11543 9377 ft 288 kts 18°
2026-05-04 05:43 40.34402 116.12530 9379 ft 288 kts 18°
2026-05-04 05:45 40.40437 116.25760 9357 ft 266 kts 87°
2026-05-04 05:45 40.40459 116.28183 9362 ft 265 kts 87°
2026-05-04 05:47 40.40599 116.45266 8032 ft 256 kts 88°
2026-05-04 05:47 40.40616 116.47582 7677 ft 253 kts 88°
2026-05-04 05:47 40.40633 116.49870 7284 ft 252 kts 89°
2026-05-04 05:48 40.40625 116.52157 6919 ft 246 kts 95°
2026-05-04 05:48 40.40138 116.54238 6570 ft 239 kts 122°
2026-05-04 05:48 40.39057 116.55841 6251 ft 235 kts 147°
2026-05-04 05:48 40.37583 116.56730 5929 ft 227 kts 172°
2026-05-04 05:49 40.36057 116.56999 5646 ft 222 kts 177°
2026-05-04 05:49 40.34514 116.57241 5306 ft 224 kts 176°
2026-05-04 05:49 40.32975 116.57486 5013 ft 220 kts 176°
2026-05-04 05:49 40.31463 116.57727 4702 ft 218 kts 176°
2026-05-04 05:51 40.22069 116.59213 2762 ft 175 kts 174°
2026-05-04 05:51 40.20853 116.59406 2507 ft 175 kts 173°
2026-05-04 05:52 40.19680 116.59593 2263 ft 167 kts 174°
2026-05-04 05:52 40.18562 116.59769 2062 ft 162 kts 175°
2026-05-04 05:52 40.17453 116.59943 1819 ft 156 kts 175°
2026-05-04 05:52 40.16415 116.60108 1608 ft 146 kts 174°
2026-05-04 05:53 40.15431 116.60275 1421 ft 141 kts 175°
2026-05-04 05:54 40.08706 116.61330 127 ft 135 kts 173°
2026-05-04 05:55 40.07909 116.61456 124 ft 87 kts 173°
2026-05-04 05:55 40.07475 116.61519 121 ft 37 kts 173°
2026-05-04 05:55 40.07337 116.61513 121 ft 13 kts 201°
2026-05-04 05:55 40.07258 116.61474 120 ft 12 kts 200°
2026-05-04 05:56 40.07182 116.61438 123 ft 10 kts 203°
2026-05-04 05:56 40.07172 116.61432 123 ft 0 kts 204°
2026-05-04 05:57 40.07161 116.61426 120 ft 8 kts 204°
2026-05-04 05:57 40.07083 116.61380 122 ft 13 kts 202°
2026-05-04 05:57 40.06998 116.61352 121 ft 11 kts 205°
2026-05-04 05:57 40.06961 116.61272 121 ft 11 kts 261°
2026-05-04 05:58 40.06952 116.61179 122 ft 10 kts 264°
2026-05-04 05:58 40.06944 116.61090 124 ft 9 kts 263°
2026-05-04 05:58 40.06942 116.61009 120 ft 9 kts 282°
2026-05-04 05:58 40.06984 116.60970 121 ft 7 kts 349°
2026-05-04 05:59 40.07030 116.60961 120 ft 6 kts 353°
2026-05-04 05:59 40.07073 116.60954 121 ft 6 kts 352°
2026-05-04 05:59 40.07102 116.60929 120 ft 4 kts 298°
2026-05-04 05:59 40.07104 116.60894 122 ft 3 kts 265°
2026-05-04 06:00 40.07101 116.60867 124 ft 3 kts 264°
2026-05-04 06:00 40.07100 116.60846 124 ft 2 kts 264°
2026-05-04 06:00 40.07099 116.60836 119 ft 0 kts 264°